(475561) = 2006 TK96 = 2008 FE64

Discovered at Palomar on 2006-10-12 by NEAT.

Orbit

Orbit type: Mars-crosser

Note: WebGL enabled browser required.

epoch2024-03-31.0
epoch JD2460400.5
perihelion date2023-01-06.30361
perihelion JD2459950.80361
argument of perihelion (°)4.69582
ascending node (°)334.42185
inclination (°)5.83334
eccentricity0.2636767
perihelion distance (AU)1.6316520
Tisserand w.r.t. Jupiter3.6
ΔV w.r.t. Earth (km/sec)8.0
semimajor axis (AU)2.2159452
mean anomaly (°)134.36456
mean daily motion (°/day)0.29878950
aphelion distance (AU)2.800
period (years)3.3
P-vector [x]0.93413139
P-vector [y]-0.33069696
P-vector [z]-0.13430590
Q-vector [x]0.35422180
Q-vector [y]0.81265327
Q-vector [z]0.46273273
absolute magnitude17.53
phase slope0.15
uncertainty0
referenceMPEC 2024-C107
observations used287
oppositions10
arc length (days)9975
first opposition used1996
last opposition used2024
residual rms (arc-secs)0.74
perturbers coarse indicatorM-v
perturbers precise indicator003Ek
first observation date used1996-10-18.0
last observation date used2024-02-09.0
computer nameMPCLINUX
JD of orbit computation2457699.335747
perihelion JD uncertainty (days)2.2710E-04
argument of perihelion uncertainty (°)1.2166E-04
ascending node uncertainty (°)1.1927E-04
inclination uncertainty (°)9.4682E-06
eccentricity uncertainty 4.8962E-07
perihelion distance uncertainty (AU)1.0668E-06
Minimum Orbit Intersection Distances (in AU)
for orbit epoch: 2460200.5, reference: E2024-CA7
Mercury1.23678
Venus0.90692
Earth0.62237
Mars0.25577
Jupiter2.58553
Saturn6.46592
Uranus15.6489
Neptune27.6473

Observations

291 total observations over interval: 1996 10 18.21944 – 2024 02 09.314716
These data are available for download (format description).

Date (UT) J2000 RA J2000 Dec Magn Location Ref
1996 10 18.21944 23 47 05.67 +07 54 57.2   809 – European Southern Observatory, La Silla MPS 254032
1996 10 18.25069 23 47 04.93 +07 54 57.6   809 – European Southern Observatory, La Silla MPS 254032
2006 08 12.48462 02 05 40.87 +16 37 01.3 20.1 R 644 – Palomar Mountain/NEAT MPS 254032
2006 08 12.49567 02 05 41.73 +16 37 10.2 19.9 R 644 – Palomar Mountain/NEAT MPS 254032
2006 08 12.50563 02 05 42.48 +16 37 18.3 19.5 R 644 – Palomar Mountain/NEAT MPS 254032
2006 09 17.37499 02 31 24.70 +22 59 10.1 19.2 V 703 – Catalina Sky Survey MPS 254032
2006 09 17.38466 02 31 24.70 +22 59 17.5 18.9 V 703 – Catalina Sky Survey MPS 254032
2006 09 17.39438 02 31 24.63 +22 59 21.1 19.0 V 703 – Catalina Sky Survey MPS 254032
2006 09 17.40412 02 31 24.60 +22 59 24.0 19.0 V 703 – Catalina Sky Survey MPS 254032
2006 09 28.40183 02 28 35.29 +24 08 10.7 18.9 V 703 – Catalina Sky Survey MPS 254032
2006 09 28.40827 02 28 34.93 +24 08 11.9 18.5 V 703 – Catalina Sky Survey MPS 254032
2006 09 28.41479 02 28 34.78 +24 08 13.8 18.7 V 703 – Catalina Sky Survey MPS 254032
2006 09 28.42134 02 28 34.60 +24 08 16.3 18.4 V 703 – Catalina Sky Survey MPS 254032
2006 10 12.40717 02 17 50.88 +24 46 47.9 18.5 R 644 – Palomar Mountain/NEAT MPS 184231
2006 10 12.42784 02 17 49.57 +24 46 48.2 18.6 R 644 – Palomar Mountain/NEAT MPS 184231
2006 10 12.44986 02 17 48.17 +24 46 48.8 18.6 R 644 – Palomar Mountain/NEAT MPS 184231
2006 10 19.30032 02 10 33.67 +24 43 26.4 18.8 V 703 – Catalina Sky Survey MPS 184231
2006 10 19.31051 02 10 33.02 +24 43 25.2 18.8 V 703 – Catalina Sky Survey MPS 184231
2006 10 19.32071 02 10 32.26 +24 43 24.4 18.8 V 703 – Catalina Sky Survey MPS 184231
2006 10 19.33088 02 10 31.54 +24 43 24.1 18.9 V 703 – Catalina Sky Survey MPS 184231
2006 10 27.25861 02 01 37.99 +24 22 32.4 18.8 V 703 – Catalina Sky Survey MPS 254032
2006 10 27.26615 02 01 37.45 +24 22 30.0 18.7 V 703 – Catalina Sky Survey MPS 254032
2006 10 27.27368 02 01 36.87 +24 22 28.9 19.0 V 703 – Catalina Sky Survey MPS 254032
2006 10 27.28119 02 01 36.48 +24 22 27.6 18.9 V 703 – Catalina Sky Survey MPS 254032
2006 11 15.21486 01 44 21.22 +22 49 07.7 19.2 V 703 – Catalina Sky Survey MPS 254032
2006 11 15.22142 01 44 20.97 +22 49 05.1 19.0 V 703 – Catalina Sky Survey MPS 254032
2006 11 15.22799 01 44 20.68 +22 49 03.4 19.1 V 703 – Catalina Sky Survey MPS 254032
2006 11 15.23456 01 44 20.43 +22 49 01.4 19.2 V 703 – Catalina Sky Survey MPS 254032
2006 11 15.27551 01 44 18.74 +22 48 47.5 19.1 V 703 – Catalina Sky Survey MPS 254032
2006 11 15.28354 01 44 18.38 +22 48 44.4 18.9 V 703 – Catalina Sky Survey MPS 254032
2006 11 15.29154 01 44 18.06 +22 48 42.4 19.0 V 703 – Catalina Sky Survey MPS 254032
2006 11 15.29956 01 44 17.77 +22 48 39.1 19.0 V 703 – Catalina Sky Survey MPS 254032
2008 03 28.17037 10 14 26.70 +09 23 41.1 21.7 V G96 – Mt. Lemmon Survey MPS 244894
2008 03 28.17651 10 14 26.37 +09 23 41.7 21.5 V G96 – Mt. Lemmon Survey MPS 244894
2008 03 28.18305 10 14 26.19 +09 23 42.2 22.3 V G96 – Mt. Lemmon Survey MPS 244894
2008 03 28.18925 10 14 25.90 +09 23 43.4 21.7 V G96 – Mt. Lemmon Survey MPS 244894
2008 04 01.19049 10 11 57.84 +09 32 30.0 21.8 V G96 – Mt. Lemmon Survey MPS 244894
2008 04 01.19600 10 11 57.69 +09 32 30.6 21.7 V G96 – Mt. Lemmon Survey MPS 244894
2008 04 01.20150 10 11 57.44 +09 32 30.6 22.7 V G96 – Mt. Lemmon Survey MPS 244894
2008 04 01.20701 10 11 57.26 +09 32 31.3 21.4 V G96 – Mt. Lemmon Survey MPS 244894
2011 02 10.26943 09 03 25.38 +19 54 33.9 21.1 V G96 – Mt. Lemmon Survey MPS 369542
2011 02 10.27588 09 03 24.91 +19 54 35.0 22.0 V G96 – Mt. Lemmon Survey MPS 369542
2011 02 10.28230 09 03 24.44 +19 54 35.9 21.8 V G96 – Mt. Lemmon Survey MPS 369542
2011 02 10.28871 09 03 24.12 +19 54 34.9 20.1 V G96 – Mt. Lemmon Survey MPS 369542
2013 12 27.26642 07 20 45.03 +29 53 18.8 20.4 V 691 – Steward Observatory, Kitt Peak-Spacewatch MPS 492030
2013 12 27.28419 07 20 43.59 +29 53 20.1 20.7 V 691 – Steward Observatory, Kitt Peak-Spacewatch MPS 492030
2013 12 27.30196 07 20 42.18 +29 53 21.8 20.5 V 691 – Steward Observatory, Kitt Peak-Spacewatch MPS 492030
2013 12 30.30125 07 16 44.45 +29 56 57.4 20.4 V G96 – Mt. Lemmon Survey MPS 493444
2013 12 30.30928 07 16 43.78 +29 56 58.2 20.7 V G96 – Mt. Lemmon Survey MPS 493444
2013 12 30.31730 07 16 43.11 +29 56 58.9 20.3 V G96 – Mt. Lemmon Survey MPS 493444
2013 12 30.32529 07 16 42.47 +29 56 59.3 20.6 V G96 – Mt. Lemmon Survey MPS 493444
2013 12 31.17268 07 15 34.68 +29 57 47.1 21.0 V 691 – Steward Observatory, Kitt Peak-Spacewatch MPS 493444
2013 12 31.19043 07 15 33.24 +29 57 47.8 20.6 V 691 – Steward Observatory, Kitt Peak-Spacewatch MPS 493444
2013 12 31.20820 07 15 31.85 +29 57 48.7 20.4 V 691 – Steward Observatory, Kitt Peak-Spacewatch MPS 493444
2014 01 07.32126 07 05 56.95 +30 00 47.6 20.6 V G96 – Mt. Lemmon Survey MPS 495288
2014 01 07.32751 07 05 56.42 +30 00 47.2 20.3 V G96 – Mt. Lemmon Survey MPS 495288
2014 01 07.33373 07 05 55.95 +30 00 47.3 20.5 V G96 – Mt. Lemmon Survey MPS 495288
2014 01 07.33996 07 05 55.42 +30 00 47.2 20.5 V G96 – Mt. Lemmon Survey MPS 495288
2016 10 23.45329 04 13 06.43 +31 57 25.7 19.6 V G96 – Mt. Lemmon Survey MPS 737475
2016 10 23.45914 04 13 06.17 +31 57 26.9 19.6 V G96 – Mt. Lemmon Survey MPS 737475
2016 10 23.46355 04 13 05.98 +31 57 27.7 19.7 V G96 – Mt. Lemmon Survey MPS 737475
2016 10 23.46943 04 13 05.69 +31 57 26.2   G96 – Mt. Lemmon Survey MPS 737475
2016 11 05.76246 04 00 01.81 +32 10 33.1 19.3 R D29 – Purple Mountain Observatory, XuYi Station MPS 742145
2016 11 05.77660 04 00 00.75 +32 10 32.0 19.0 R D29 – Purple Mountain Observatory, XuYi Station MPS 742145
2016 11 05.79075 03 59 59.66 +32 10 31.5 19.7 R D29 – Purple Mountain Observatory, XuYi Station MPS 742145
2016 11 06.38355 03 59 17.05 +32 10 01.2 19.6 V 703 – Catalina Sky Survey MPS 742145
2016 11 06.38959 03 59 16.61 +32 10 01.9 19.7 V 703 – Catalina Sky Survey MPS 742145
2016 11 06.39563 03 59 16.16 +32 10 00.0 19.8 V 703 – Catalina Sky Survey MPS 742145
2016 11 06.40168 03 59 15.73 +32 10 00.3 20.1 V 703 – Catalina Sky Survey MPS 742145
2016 11 18.39079 03 43 52.90 +31 39 35.7 19.3 V G96 – Mt. Lemmon Survey MPS 747396
2016 11 18.39513 03 43 52.55 +31 39 34.5 19.6 V G96 – Mt. Lemmon Survey MPS 747396
2016 11 18.39945 03 43 52.19 +31 39 33.7 19.3 V G96 – Mt. Lemmon Survey MPS 747396
2016 11 18.40383 03 43 51.84 +31 39 32.7 19.4 V G96 – Mt. Lemmon Survey MPS 747396
2016 11 30.06018 03 29 37.63 +30 39 38.4 19.8 r G45 – Space Surveillance Telescope, Atom Site MPS 749451
2016 11 30.07064 03 29 36.89 +30 39 34.4 20.1 r G45 – Space Surveillance Telescope, Atom Site MPS 749451
2016 11 30.23681 03 29 25.58 +30 38 36.3 19.9 r G45 – Space Surveillance Telescope, Atom Site MPS 749451
2016 11 30.24520 03 29 24.92 +30 38 32.8 19.4 r G45 – Space Surveillance Telescope, Atom Site MPS 749451
2016 11 30.25421 03 29 24.38 +30 38 29.5 19.8 r G45 – Space Surveillance Telescope, Atom Site MPS 749451
2016 12 04.14898 03 25 24.19 +30 14 25.8 19.9 r G45 – Space Surveillance Telescope, Atom Site MPS 751909
2016 12 04.15391 03 25 23.91 +30 14 24.0 20.0 r G45 – Space Surveillance Telescope, Atom Site MPS 751909
2016 12 04.15961 03 25 23.50 +30 14 22.3 20.3 r G45 – Space Surveillance Telescope, Atom Site MPS 751909
2016 12 04.16468 03 25 23.23 +30 14 20.4 20.2 r G45 – Space Surveillance Telescope, Atom Site MPS 751909
2016 12 04.17001 03 25 22.92 +30 14 18.4 19.7 r G45 – Space Surveillance Telescope, Atom Site MPS 751909
2016 12 04.17503 03 25 22.61 +30 14 16.2 19.9 r G45 – Space Surveillance Telescope, Atom Site MPS 751909
2016 12 06.04443 03 23 38.39 +30 02 23.0 20.3 r G45 – Space Surveillance Telescope, Atom Site MPS 751909
2016 12 06.04932 03 23 38.15 +30 02 20.9 20.1 r G45 – Space Surveillance Telescope, Atom Site MPS 751909
2016 12 06.12254 03 23 34.12 +30 01 54.2 20.0 r G45 – Space Surveillance Telescope, Atom Site MPS 751909
2016 12 06.12747 03 23 33.81 +30 01 52.3 19.6 r G45 – Space Surveillance Telescope, Atom Site MPS 751909
2016 12 06.13290 03 23 33.49 +30 01 50.3 19.7 r G45 – Space Surveillance Telescope, Atom Site MPS 751909
2016 12 06.13833 03 23 33.20 +30 01 48.3 19.8 r G45 – Space Surveillance Telescope, Atom Site MPS 751909
